Location: Oshawa
(43.9000°N, 78.8670°W)
Time: 06:25:11
(UTC-04:00)

Thor Agena Rocket - Visible Passes

Search period start: 24 April 2018 00:00
Search period end: 04 May 2018 00:00
Orbit: 760 x 808 km, 99.1° (Epoch: 24 April)

Date Brightness Start Highest point End Pass type
(mag) Time Alt. Az. Time Alt. Az. Time Alt. Az.
24 Apr 3.6 20:41:35 10° NNE 20:46:49 64° ESE 20:52:03 10° S visible
24 Apr 6.3 22:21:57 10° NNW 22:25:37 20° WNW 22:29:17 10° WSW visible
25 Apr 5.3 21:49:56 10° N 21:54:39 34° WNW 21:59:22 10° SW visible
26 Apr 4.1 21:18:20 10° N 21:23:32 63° WNW 21:28:45 10° SSW visible
27 Apr 3.6 20:47:00 10° NNE 20:52:17 70° ESE 20:57:33 10° S visible
27 Apr 6.4 22:27:34 10° NNW 22:31:01 18° WNW 22:34:28 10° W visible
28 Apr 5.5 21:55:28 10° N 22:00:04 31° WNW 22:04:40 10° SW visible
29 Apr 4.3 21:23:48 10° N 21:28:58 58° WNW 21:34:09 10° SSW visible
30 Apr 3.6 20:52:26 10° NNE 20:57:45 77° ESE 21:03:02 10° S visible
30 Apr 6.5 22:33:11 10° NNW 22:36:24 17° WNW 22:39:38 10° W visible
01 May 5.7 22:00:59 10° N 22:05:29 29° WNW 22:09:58 10° WSW visible
02 May 4.5 21:29:17 10° N 21:34:25 52° WNW 21:39:32 10° SW visible
03 May 3.6 20:57:52 10° NNE 21:03:12 84° ESE 21:08:30 10° SSW visible
03 May 6.5 22:38:50 10° NNW 22:41:47 15° WNW 22:44:45 10° W visible
